YAOGAN 28

导读

YAOGAN 28(遥感二十八号)是中国研制发射的遥感卫星,于北京时间2015年11月8日8点成功发射入轨。作为中国遥感卫星系列的成员,该卫星主要承担对地观测任务,可获取空间遥感信息,在国土资源勘查、农业估产、灾害监测、生态环境保护等领域发挥支撑作用,是中国空间遥感体系的重要组成部分,体现了中国在航天遥感领域的持续发展能力。

基本信息
目录编号:
41026
目录名称:
YAOGAN 28
国际标识:
2015-064A
轨道中心:
EARTH
卫星名称:
YAOGAN 28
卫星全名:
--
卫星状态:
在轨 (已飞行3963 天)
发射日期:
2015-11-08 UTC
国别 :
中国 (CN)
星等 :
--
该卫星已列入 空间交会检测服务 Space Conjunction Data Service (SCDS) ,当前飞行风险评估等级: 无高风险
轨道信息
数据来源 国际轨道数据
星历时间: 2026-09-14T06:20:25+0800
6小时前
查看轨道信息
半长轴: 6858.661km
偏心率: 0.0009179
轨道倾角: 97.320°
近地点辐角 231.231°
升交点赤经 33.514°
平近点角 128.811°
近地点: 474.228km
远地点: 486.82km
周期: 94.215分钟
每日圈数: 15.284238
详细信息
使用方式:
暂无
2D轨道图
3D轨道图
轨道高度分析图
轨道倾角分析图
轨道综合分析图
查看轨道综合分析图
交会数据列表
事件ID 空间交会对象 最接近时刻(TCA) 交会距离 交会风险概率(CRP) 交会风险指数(CRI) 操作
CDM_260914-020704-102605-862723
2026-09-14T
02:07:20+0000
0.712 km
远距离
5.701942E-5 中风险 0.7
CDM_260916-141104-102606-308021
2026-09-16T
14:11:00+0000
0.828 km
远距离
5.159266E-5 中风险 0.69
CDM_260914-003104-102606-299822
2026-09-14T
00:31:34+0000
0.842 km
远距离
4.461683E-5 中风险 0.68
CDM_260915-141304-102606-299822
2026-09-15T
14:13:29+0000
1.255 km
极远距离
1.104848E-5 中风险 0.56
CDM_260916-055804-102606-390722
2026-09-16T
05:58:54+0000
1.494 km
极远距离
6.480848E-6 低风险 0.51
CDM_260915-062604-102606-438722
2026-09-15T
06:26:32+0000
1.620 km
极远距离
5.063762E-6 低风险 0.49
CDM_260914-082104-102605-682425
2026-09-14T
08:21:55+0000
1.670 km
极远距离
3.955191E-6 低风险 0.47
CDM_260915-123904-102606-299822
2026-09-15T
12:39:14+0000
1.790 km
极远距离
3.511748E-6 低风险 0.46
CDM_260914-113204-102606-414022
2026-09-14T
11:32:08+0000
1.799 km
极远距离
2.812776E-6 低风险 0.44
CDM_260908-145504-102606-368024
2026-09-08T
14:55:12+0000
1.794 km
极远距离
2.729281E-6 低风险 0.44
与全量物体交会距离演化趋势 订阅飞行安全评估服务
与全量物体交会风险概率演化趋势 订阅飞行安全评估服务